When you browse on this site, cookies collect data to enhance your experience and personalize the content and advertising you see.
Visit our Privacy Policy to learn more. By continuing to use the site, you agree to this use of cookies and data.
  • In Hungary
  • List of Countries
  • For 7 days
  • Water Temperature
  • Weather Map
  • News
  • Weather Widgets
  • user-avatar
    Login

    Hourly Weather Novyy Sad

    Today, 16 October, Wednesday

    Time Temperature Precipitation Wind Pressure Humidity
    00:00 +16°C° 0 mm 1 mps 762 mmHg 57%
    01:00 +16°C° 0 mm 1 mps 762 mmHg 58%
    02:00 +15°C° 0 mm 1 mps 762 mmHg 60%
    03:00 +15°C° 0 mm 1 mps 762 mmHg 63%
    04:00 +14°C° 0 mm 1 mps 762 mmHg 64%
    05:00 +14°C° 0 mm 1 mps 762 mmHg 65%
    06:00 +14°C° 0 mm 1 mps 762 mmHg 67%
    07:00 +15°C° 0 mm 1 mps 762 mmHg 62%
    08:00 +17°C° 0 mm 2 mps 762 mmHg 58%
    09:00 +18°C° 0 mm 2 mps 762 mmHg 54%
    10:00 +20°C° 0 mm 2 mps 762 mmHg 49%
    11:00 +23°C° 0 mm 2 mps 762 mmHg 44%
    12:00 +25°C° 0 mm 2 mps 762 mmHg 39%
    13:00 +25°C° 0 mm 3 mps 762 mmHg 37%
    14:00 +26°C° 0 mm 3 mps 761 mmHg 36%
    15:00 +27°C° 0 mm 3 mps 761 mmHg 35%
    16:00 +25°C° 0 mm 3 mps 761 mmHg 40%
    17:00 +22°C° 0 mm 3 mps 761 mmHg 45%
    18:00 +20°C° 0 mm 3 mps 761 mmHg 50%
    19:00 +19°C° 0 mm 3 mps 761 mmHg 52%
    20:00 +18°C° 0 mm 3 mps 761 mmHg 54%
    21:00 +18°C° 0 mm 3 mps 761 mmHg 55%
    22:00 +17°C° 0 mm 3 mps 761 mmHg 58%
    23:00 +17°C° 0 mm 2 mps 761 mmHg 61%

    Tomorrow, 17 October, Thursday

    Time Temperature Precipitation Wind Pressure Humidity
    00:00 +16°C° 0 mm 2 mps 761 mmHg 64%
    01:00 +16°C° 0 mm 2 mps 761 mmHg 67%
    02:00 +15°C° 0 mm 2 mps 761 mmHg 70%
    03:00 +15°C° 0 mm 2 mps 761 mmHg 72%
    04:00 +14°C° 0 mm 2 mps 761 mmHg 74%
    05:00 +14°C° 0 mm 2 mps 761 mmHg 76%
    06:00 +14°C° 0 mm 2 mps 761 mmHg 79%
    07:00 +15°C° 0 mm 2 mps 761 mmHg 74%
    08:00 +16°C° 0 mm 2 mps 761 mmHg 69%
    09:00 +18°C° 0 mm 2 mps 761 mmHg 64%
    10:00 +20°C° 0 mm 2 mps 761 mmHg 58%
    11:00 +23°C° 0 mm 2 mps 761 mmHg 51%
    12:00 +25°C° 0 mm 2 mps 761 mmHg 44%
    13:00 +25°C° 0 mm 2 mps 761 mmHg 42%
    14:00 +26°C° 0 mm 2 mps 760 mmHg 41%
    15:00 +27°C° 0 mm 2 mps 760 mmHg 39%
    16:00 +25°C° 0 mm 1 mps 760 mmHg 45%
    17:00 +23°C° 0 mm 1 mps 760 mmHg 51%
    18:00 +21°C° 0 mm 1 mps 760 mmHg 58%
    19:00 +20°C° 0 mm 1 mps 760 mmHg 61%
    20:00 +20°C° 0 mm 1 mps 760 mmHg 64%
    21:00 +19°C° 0 mm 1 mps 760 mmHg 68%
    22:00 +18°C° 0 mm 1 mps 760 mmHg 69%
    23:00 +18°C° 0 mm 1 mps 760 mmHg 70%

    Day after tomorrow, 18 October, Friday

    Time Temperature Precipitation Wind Pressure Humidity
    00:00 +15°C° 0 mm 0 mps 760 mmHg 72%
    01:00 +15°C° 0 mm 0 mps 760 mmHg 73%
    02:00 +15°C° 0 mm 0 mps 760 mmHg 74%
    03:00 +14°C° 0 mm 0 mps 760 mmHg 75%
    04:00 +14°C° 0 mm 0 mps 760 mmHg 76%
    05:00 +14°C° 0 mm 0 mps 760 mmHg 77%
    06:00 +13°C° 0 mm 0 mps 760 mmHg 78%
    07:00 +15°C° 0 mm 0 mps 760 mmHg 72%
    08:00 +17°C° 0 mm 0 mps 760 mmHg 66%
    09:00 +18°C° 0 mm 0 mps 760 mmHg 60%
    10:00 +20°C° 0 mm 0 mps 760 mmHg 54%
    11:00 +22°C° 0 mm 0 mps 760 mmHg 48%
    12:00 +26°C° 0 mm 1 mps 760 mmHg 42%
    13:00 +26°C° 0 mm 1 mps 760 mmHg 41%
    14:00 +27°C° 0 mm 1 mps 760 mmHg 39%
    15:00 +27°C° 0 mm 1 mps 759 mmHg 37%
    16:00 +25°C° 0 mm 1 mps 759 mmHg 42%
    17:00 +23°C° 0 mm 1 mps 759 mmHg 47%
    18:00 +21°C° 0 mm 1 mps 759 mmHg 52%
    19:00 +21°C° 0 mm 1 mps 759 mmHg 55%
    20:00 +20°C° 0 mm 1 mps 759 mmHg 58%
    21:00 +19°C° 0 mm 1 mps 760 mmHg 61%
    22:00 +19°C° 0 mm 1 mps 760 mmHg 63%
    23:00 +16°C° 0 mm 0 mps 760 mmHg 64%

    19 October, Saturday

    Time Temperature Precipitation Wind Pressure Humidity
    00:00 +16°C° 0 mm 0 mps 760 mmHg 66%
    01:00 +15°C° 0 mm 0 mps 760 mmHg 68%
    02:00 +15°C° 0 mm 0 mps 760 mmHg 69%
    03:00 +15°C° 0 mm 0 mps 760 mmHg 70%
    04:00 +14°C° 0 mm 0 mps 760 mmHg 72%
    05:00 +14°C° 0 mm 0 mps 760 mmHg 73%
    06:00 +14°C° 0 mm 0 mps 761 mmHg 74%
    07:00 +15°C° 0 mm 0 mps 761 mmHg 70%
    08:00 +16°C° 0 mm 0 mps 761 mmHg 65%
    09:00 +18°C° 0 mm 0 mps 761 mmHg 60%
    10:00 +21°C° 0 mm 1 mps 761 mmHg 55%
    11:00 +23°C° 0 mm 1 mps 761 mmHg 50%
    12:00 +24°C° 0 mm 1 mps 761 mmHg 45%
    13:00 +25°C° 0 mm 2 mps 761 mmHg 44%
    14:00 +25°C° 0 mm 2 mps 761 mmHg 42%
    15:00 +26°C° 0 mm 2 mps 760 mmHg 41%
    16:00 +24°C° 0 mm 2 mps 761 mmHg 45%
    17:00 +23°C° 0 mm 2 mps 761 mmHg 49%
    18:00 +20°C° 0 mm 2 mps 761 mmHg 53%
    19:00 +19°C° 0 mm 2 mps 761 mmHg 55%
    20:00 +19°C° 0 mm 2 mps 761 mmHg 58%
    21:00 +18°C° 0 mm 2 mps 761 mmHg 60%
    22:00 +17°C° 0 mm 2 mps 761 mmHg 61%
    23:00 +17°C° 0 mm 2 mps 761 mmHg 62%

    20 October, Sunday

    Time Temperature Precipitation Wind Pressure Humidity
    00:00 +16°C° 0 mm 2 mps 761 mmHg 64%
    01:00 +16°C° 0 mm 2 mps 761 mmHg 65%
    02:00 +15°C° 0 mm 2 mps 761 mmHg 66%
    03:00 +15°C° 0 mm 1 mps 762 mmHg 68%
    04:00 +14°C° 0 mm 1 mps 762 mmHg 69%
    05:00 +14°C° 0 mm 2 mps 762 mmHg 70%
    06:00 +14°C° 0 mm 2 mps 762 mmHg 72%
    07:00 +15°C° 0 mm 2 mps 762 mmHg 68%
    08:00 +16°C° 0 mm 2 mps 763 mmHg 65%
    09:00 +17°C° 0 mm 3 mps 763 mmHg 62%
    10:00 +19°C° 0 mm 3 mps 763 mmHg 57%
    11:00 +21°C° 0 mm 3 mps 763 mmHg 52%
    12:00 +23°C° 0 mm 4 mps 763 mmHg 47%
    13:00 +23°C° 0 mm 4 mps 763 mmHg 45%
    14:00 +25°C° 0 mm 4 mps 763 mmHg 44%
    15:00 +25°C° 0 mm 5 mps 763 mmHg 42%
    16:00 +23°C° 0 mm 5 mps 763 mmHg 44%
    17:00 +21°C° 0 mm 4 mps 763 mmHg 47%
    18:00 +20°C° 0 mm 4 mps 763 mmHg 49%
    19:00 +19°C° 0 mm 5 mps 763 mmHg 51%
    20:00 +17°C° 0 mm 5 mps 763 mmHg 53%
    21:00 +17°C° 0 mm 5 mps 763 mmHg 54%
    22:00 +16°C° 0 mm 5 mps 763 mmHg 57%
    23:00 +15°C° 0 mm 4 mps 763 mmHg 59%

    21 October, Monday

    Time Temperature Precipitation Wind Pressure Humidity
    00:00 +15°C° 0 mm 4 mps 763 mmHg 61%
    01:00 +14°C° 0 mm 4 mps 763 mmHg 64%
    02:00 +14°C° 0 mm 4 mps 763 mmHg 66%
    03:00 +13°C° 0 mm 3 mps 764 mmHg 69%
    04:00 +13°C° 0 mm 3 mps 764 mmHg 71%
    05:00 +12°C° 0 mm 3 mps 764 mmHg 73%
    06:00 +12°C° 0 mm 3 mps 764 mmHg 75%
    07:00 +13°C° 0 mm 4 mps 764 mmHg 70%
    08:00 +14°C° 0 mm 4 mps 764 mmHg 65%
    09:00 +15°C° 0 mm 5 mps 764 mmHg 60%
    10:00 +17°C° 0 mm 5 mps 764 mmHg 55%
    11:00 +19°C° 0 mm 5 mps 764 mmHg 49%
    12:00 +21°C° 0 mm 6 mps 764 mmHg 43%
    13:00 +22°C° 0 mm 6 mps 764 mmHg 42%
    14:00 +22°C° 0 mm 6 mps 764 mmHg 40%
    15:00 +23°C° 0 mm 6 mps 763 mmHg 39%
    16:00 +21°C° 0 mm 5 mps 763 mmHg 44%
    17:00 +20°C° 0 mm 5 mps 763 mmHg 49%
    18:00 +17°C° 0 mm 5 mps 763 mmHg 53%
    19:00 +17°C° 0 mm 5 mps 763 mmHg 56%
    20:00 +16°C° 0 mm 5 mps 763 mmHg 59%
    21:00 +15°C° 0 mm 5 mps 763 mmHg 62%
    22:00 +15°C° 0 mm 5 mps 763 mmHg 64%
    23:00 +14°C° 0 mm 4 mps 763 mmHg 66%
    Show more